Regional Weather Roundup
Issued by NWS

Home | Current Version | Previous Version | Graphics & Text | Print | Product List | Glossary On
Versions: 1 2 3 4 5 6 7 8 9 10 11 12 13 14 15 16 17 18 19 20 21 22 23 24 25 26 27 28 29 30 31 32 33 34 35 36 37 38 39 40 41 42 43 44 45 46 47 48 49 50
000
ASUS43 KLMK 161402
RWRKY
KENTUCKY REGIONAL WEATHER ROUNDUP
NATIONAL WEATHER SERVICE LOUISVILLE KY
1000 AM EDT WED APR 16 2014

NOTE "FAIR" INDICATES FEW OR NO CLOUDS BELOW 12,000 FEET
WITH NO SIGNIFICANT WEATHER AND/OR OBSTRUCTIONS TO VISIBILITY.

KYZ001>023-026-027-061>063-070>075-161500-
WESTERN AND SOUTH CENTRAL KENTUCKY

CITY           SKY/WX    TMP DP  RH WIND       PRES   REMARKS
PADUCAH        SUNNY     43  26  51 SE15      30.32S
HENDERSON      SUNNY     39  21  48 SE13      30.35S WCI  32
OWENSBORO      SUNNY     38  21  50 SE14G21   30.37R WCI  30
HOPKINSVILLE   SUNNY     41  25  52 E13       30.34R
BOWLING GREEN  MOSUNNY   40  21  46 E14       30.36R WCI  32
GLASGOW        NOT AVBL
$$

KYZ024-025-028>034-038-045-046-053-161500-
NORTH CENTRAL KENTUCKY

CITY           SKY/WX    TMP DP  RH WIND       PRES   REMARKS
LOUISVILLE/SDF PTSUNNY   39  19  44 E13       30.38F WCI  31
LOUISVILLE/LOU SUNNY     40  17  39 E12G20    30.39F WCI  33
FORT KNOX      SUNNY     37  20  49 E13       30.35S WCI  29
$$

KYZ035>037-039>044-047>052-055>060-089>105-161500-
NORTHEAST KENTUCKY

CITY           SKY/WX    TMP DP  RH WIND       PRES   REMARKS
LEXINGTON      SUNNY     37  17  44 E13       30.37F WCI  29
COVINGTON      MOSUNNY   36  14  40 E14       30.40S WCI  27
FRANKFORT      SUNNY     36  19  50 E12       30.38S WCI  28
$$

KYZ054-064>069-076>088-106>120-161500-
SOUTHEAST KENTUCKY

CITY           SKY/WX    TMP DP  RH WIND       PRES   REMARKS
JACKSON        SUNNY     34  17  50 VRB3      30.37S
LONDON         SUNNY     36  18  48 E12G18    30.35S WCI  28
SOMERSET       NOT AVBL
MIDDLESBORO    NOT AVBL
MONTICELLO     SUNNY     48  33  56 E15G21    30.36S
$$




USA.gov is the U.S. government's official web portal to all federal, state and local government web resources and services.